Time,TemperatureF,DewpointF,PressureIn,WindDirection,WindDirectionDegrees,WindSpeedMPH,WindSpeedGustMPH,Humidity,HourlyPrecipIn,Conditions,Clouds,dailyrainin,SoftwareType,DateUTC
2013-06-28 00:00:00,57.6,52.8,29.69,West,274,0.0,0.0,84,0.00,RA,SKC,0.00,WeatherDisplay:10.37,2013-06-27 23:00:00,
2013-06-28 00:05:00,57.4,52.6,29.69,NNW,338,0.0,0.0,84,0.00,RA,SKC,0.00,WeatherDisplay:10.37,2013-06-27 23:05:00,
2013-06-28 00:10:00,57.4,52.9,29.68,SW,225,0.0,0.0,85,0.00,CLR,SKC,0.00,WeatherDisplay:10.37,2013-06-27 23:10:00,
2013-06-28 00:15:00,57.4,52.9,29.68,NW,315,0.0,0.0,85,0.00,CLR,SKC,0.00,WeatherDisplay:10.37,2013-06-27 23:15:00,
2013-06-28 00:20:00,57.4,52.9,29.68,WNW,292,0.0,0.0,85,0.00,CLR,SKC,0.00,WeatherDisplay:10.37,2013-06-27 23:20:00,
2013-06-28 00:25:00,57.4,52.6,29.68,WSW,248,0.0,0.0,84,0.00,CLR,SKC,0.00,WeatherDisplay:10.37,2013-06-27 23:25:00,
2013-06-28 00:31:00,57.4,52.9,29.68,NW,315,0.0,0.0,85,0.00,CLR,SKC,0.00,WeatherDisplay:10.37,2013-06-27 23:31:00,
2013-06-28 00:36:00,57.2,52.7,29.68,West,270,0.0,0.0,85,0.00,CLR,SKC,0.00,WeatherDisplay:10.37,2013-06-27 23:36:00,
2013-06-28 00:42:00,57.2,52.7,29.68,West,270,0.0,0.0,85,0.00,CLR,SKC,0.00,WeatherDisplay:10.37,2013-06-27 23:42:00,
2013-06-28 00:47:00,57.0,52.6,29.68,WNW,292,0.0,0.0,85,0.00,CLR,SKC,0.00,WeatherDisplay:10.37,2013-06-27 23:47:00,
2013-06-28 00:53:00,57.0,52.6,29.68,WSW,248,0.0,0.0,85,0.00,CLR,SKC,0.00,WeatherDisplay:10.37,2013-06-27 23:53:00,
2013-06-28 00:58:00,57.0,52.6,29.68,WSW,248,0.0,0.0,85,0.00,CLR,SKC,0.00,WeatherDisplay:10.37,2013-06-27 23:58:00,
2013-06-28 01:04:00,57.0,52.6,29.67,West,270,0.0,0.0,85,0.00,CLR,SKC,0.00,WeatherDisplay:10.37,2013-06-28 00:04:00,
2013-06-28 01:09:00,57.0,52.6,29.67,WSW,248,0.0,0.0,85,0.00,CLR,SKC,0.00,WeatherDisplay:10.37,2013-06-28 00:09:00,
2013-06-28 01:14:00,57.0,52.6,29.67,West,270,0.0,0.0,85,0.00,CLR,SKC,0.00,WeatherDisplay:10.37,2013-06-28 00:14:00,
2013-06-28 01:19:00,56.8,52.4,29.66,NW,315,0.0,0.0,85,0.00,CLR,SKC,0.00,WeatherDisplay:10.37,2013-06-28 00:19:00,
2013-06-28 01:25:00,56.8,52.4,29.67,WNW,292,0.0,0.0,85,0.00,CLR,SKC,0.00,WeatherDisplay:10.37,2013-06-28 00:25:00,
2013-06-28 01:30:00,56.8,52.4,29.67,West,277,0.0,0.0,85,0.00,CLR,SKC,0.00,WeatherDisplay:10.37,2013-06-28 00:30:00,
2013-06-28 01:35:00,56.8,52.4,29.66,WNW,289,0.0,0.0,85,0.00,CLR,SKC,0.00,WeatherDisplay:10.37,2013-06-28 00:35:00,
2013-06-28 01:40:00,56.8,52.4,29.67,West,281,0.0,0.0,85,0.00,CLR,SKC,0.00,WeatherDisplay:10.37,2013-06-28 00:40:00,
2013-06-28 01:45:00,56.8,52.4,29.66,WNW,290,0.0,0.0,85,0.00,CLR,SKC,0.00,WeatherDisplay:10.37,2013-06-28 00:45:00,
2013-06-28 01:50:00,56.8,52.4,29.66,WNW,287,0.0,0.0,85,0.00,CLR,SKC,0.00,WeatherDisplay:10.37,2013-06-28 00:50:00,
2013-06-28 01:55:00,56.8,52.4,29.65,WNW,289,0.0,0.0,85,0.00,CLR,SKC,0.00,WeatherDisplay:10.37,2013-06-28 00:55:00,
2013-06-28 02:00:00,56.7,52.2,29.65,NW,311,0.0,0.0,85,0.00,CLR,SKC,0.00,WeatherDisplay:10.37,2013-06-28 01:00:00,
2013-06-28 02:05:00,56.5,52.0,29.65,NW,315,0.0,0.0,85,0.00,CLR,SKC,0.00,WeatherDisplay:10.37,2013-06-28 01:05:00,
2013-06-28 02:10:00,56.5,52.0,29.65,NW,306,0.0,0.0,85,0.00,CLR,SKC,0.00,WeatherDisplay:10.37,2013-06-28 01:10:00,
2013-06-28 02:15:00,56.3,51.8,29.65,WNW,284,0.0,0.0,85,0.00,CLR,SKC,0.00,WeatherDisplay:10.37,2013-06-28 01:15:00,
2013-06-28 02:20:00,56.3,52.2,29.65,WSW,248,0.0,0.0,86,0.00,CLR,SKC,0.00,WeatherDisplay:10.37,2013-06-28 01:20:00,
2013-06-28 02:25:00,56.3,52.2,29.65,West,279,0.0,0.0,86,0.00,CLR,SKC,0.00,WeatherDisplay:10.37,2013-06-28 01:25:00,
2013-06-28 02:30:00,56.1,52.0,29.65,WNW,285,0.0,0.0,86,0.00,CLR,SKC,0.00,WeatherDisplay:10.37,2013-06-28 01:30:00,
2013-06-28 02:35:00,56.1,52.0,29.65,West,269,0.0,0.0,86,0.00,CLR,SKC,0.00,WeatherDisplay:10.37,2013-06-28 01:35:00,
2013-06-28 02:40:00,56.1,52.0,29.65,West,261,0.0,0.0,86,0.00,CLR,SKC,0.00,WeatherDisplay:10.37,2013-06-28 01:40:00,
2013-06-28 02:45:00,56.1,52.0,29.64,West,269,0.0,0.0,86,0.00,CLR,SKC,0.00,WeatherDisplay:10.37,2013-06-28 01:45:00,
2013-06-28 02:50:00,56.0,51.8,29.64,West,269,0.0,0.0,86,0.00,CLR,SKC,0.00,WeatherDisplay:10.37,2013-06-28 01:50:00,
2013-06-28 02:55:00,55.9,51.8,29.64,WNW,292,0.0,0.0,86,0.00,CLR,SKC,0.00,WeatherDisplay:10.37,2013-06-28 01:55:00,
2013-06-28 03:01:00,55.9,51.8,29.64,NW,315,0.0,0.0,86,0.00,CLR,SKC,0.00,WeatherDisplay:10.37,2013-06-28 02:01:00,
2013-06-28 03:07:00,55.9,52.1,29.63,NNW,338,0.0,0.0,87,0.00,CLR,SKC,0.00,WeatherDisplay:10.37,2013-06-28 02:07:00,
2013-06-28 03:13:00,55.8,51.9,29.64,West,270,0.0,0.0,87,0.00,CLR,SKC,0.00,WeatherDisplay:10.37,2013-06-28 02:13:00,
2013-06-28 03:18:00,55.8,51.9,29.63,WNW,292,0.0,0.0,87,0.00,CLR,SKC,0.00,WeatherDisplay:10.37,2013-06-28 02:18:00,
2013-06-28 03:23:00,55.6,51.8,29.63,West,270,0.0,0.0,87,0.00,CLR,SKC,0.00,WeatherDisplay:10.37,2013-06-28 02:23:00,
2013-06-28 03:29:00,55.6,51.8,29.63,WNW,292,0.0,0.0,87,0.00,CLR,SKC,0.00,WeatherDisplay:10.37,2013-06-28 02:29:00,
2013-06-28 03:34:00,55.6,51.8,29.62,WSW,248,0.0,0.0,87,0.00,CLR,SKC,0.00,WeatherDisplay:10.37,2013-06-28 02:34:00,
2013-06-28 03:39:00,55.6,52.1,29.62,WSW,248,0.0,0.0,88,0.00,CLR,SKC,0.00,WeatherDisplay:10.37,2013-06-28 02:39:00,
2013-06-28 03:44:00,55.6,52.1,29.62,WNW,292,0.0,0.0,88,0.00,CLR,SKC,0.00,WeatherDisplay:10.37,2013-06-28 02:44:00,
2013-06-28 03:49:00,55.6,52.1,29.62,West,270,0.0,0.0,88,0.00,CLR,SKC,0.00,WeatherDisplay:10.37,2013-06-28 02:49:00,
2013-06-28 03:55:00,55.6,52.1,29.63,WNW,292,0.0,0.0,88,0.00,CLR,SKC,0.00,WeatherDisplay:10.37,2013-06-28 02:55:00,
2013-06-28 04:00:00,55.6,52.1,29.62,WSW,242,0.0,0.0,88,0.00,CLR,SKC,0.00,WeatherDisplay:10.37,2013-06-28 03:00:00,
2013-06-28 04:05:00,55.6,52.1,29.62,SW,232,0.0,0.0,88,0.00,CLR,SKC,0.00,WeatherDisplay:10.37,2013-06-28 03:05:00,
2013-06-28 04:10:00,55.6,52.1,29.62,WSW,241,0.0,0.0,88,0.00,CLR,SKC,0.00,WeatherDisplay:10.37,2013-06-28 03:10:00,
2013-06-28 04:15:00,55.6,52.1,29.61,West,270,0.0,0.0,88,0.00,CLR,SKC,0.00,WeatherDisplay:10.37,2013-06-28 03:15:00,
2013-06-28 04:20:00,55.6,52.1,29.61,NW,315,0.0,0.0,88,0.00,CLR,SKC,0.00,WeatherDisplay:10.37,2013-06-28 03:20:00,
2013-06-28 04:26:00,55.6,52.1,29.62,WNW,292,0.0,0.0,88,0.00,CLR,SKC,0.00,WeatherDisplay:10.37,2013-06-28 03:26:00,
2013-06-28 04:31:00,55.6,52.1,29.61,NW,315,0.0,0.0,88,0.00,CLR,SKC,0.00,WeatherDisplay:10.37,2013-06-28 03:31:00,
2013-06-28 04:36:00,55.6,52.1,29.61,WNW,292,0.0,0.0,88,0.00,CLR,SKC,0.00,WeatherDisplay:10.37,2013-06-28 03:36:00,
2013-06-28 04:42:00,55.6,52.1,29.61,NNW,338,0.0,0.0,88,0.00,CLR,SKC,0.00,WeatherDisplay:10.37,2013-06-28 03:42:00,
2013-06-28 04:47:00,55.6,52.1,29.60,WSW,248,0.0,0.0,88,0.00,CLR,SKC,0.00,WeatherDisplay:10.37,2013-06-28 03:47:00,
2013-06-28 04:52:00,55.6,52.1,29.61,NW,315,0.0,0.0,88,0.00,CLR,SKC,0.00,WeatherDisplay:10.37,2013-06-28 03:52:00,
2013-06-28 04:57:00,55.6,52.1,29.60,WNW,292,0.0,0.0,88,0.00,CLR,SKC,0.00,WeatherDisplay:10.37,2013-06-28 03:57:00,
2013-06-28 05:01:00,55.6,52.1,29.61,NNW,338,0.0,0.0,88,0.00,CLR,SKC,0.00,WeatherDisplay:10.37,2013-06-28 04:01:00,
2013-06-28 05:06:00,55.8,52.3,29.61,WNW,292,0.0,0.0,88,0.00,CLR,SKC,0.00,WeatherDisplay:10.37,2013-06-28 04:06:00,
2013-06-28 05:11:00,55.6,52.1,29.60,NW,315,0.0,0.0,88,0.00,CLR,SKC,0.00,WeatherDisplay:10.37,2013-06-28 04:11:00,
2013-06-28 05:16:00,55.6,52.1,29.60,NNW,338,0.0,0.0,88,0.00,CLR,SKC,0.00,WeatherDisplay:10.37,2013-06-28 04:16:00,
2013-06-28 05:21:00,55.6,52.1,29.60,WSW,248,0.0,0.0,88,0.00,CLR,SKC,0.00,WeatherDisplay:10.37,2013-06-28 04:21:00,
2013-06-28 05:26:00,55.6,52.1,29.59,WNW,292,0.0,0.0,88,0.00,CLR,SKC,0.00,WeatherDisplay:10.37,2013-06-28 04:26:00,
2013-06-28 05:31:00,55.4,51.9,29.60,SW,225,0.0,0.0,88,0.00,CLR,SKC,0.00,WeatherDisplay:10.37,2013-06-28 04:31:00,
2013-06-28 05:36:00,55.6,52.1,29.60,WNW,292,0.0,0.0,88,0.00,CLR,SKC,0.00,WeatherDisplay:10.37,2013-06-28 04:36:00,
2013-06-28 05:41:00,55.6,52.1,29.60,West,270,0.0,0.0,88,0.00,CLR,SKC,0.00,WeatherDisplay:10.37,2013-06-28 04:41:00,
2013-06-28 05:46:00,55.4,51.9,29.60,SW,225,0.0,0.0,88,0.02,RA,SKC,0.02,WeatherDisplay:10.37,2013-06-28 04:46:00,
2013-06-28 05:51:00,55.2,51.7,29.60,NW,315,0.0,0.0,88,0.02,RA,SKC,0.04,WeatherDisplay:10.37,2013-06-28 04:51:00,
2013-06-28 05:56:00,55.2,52.0,29.59,NW,315,0.0,0.0,89,0.06,RA,SKC,0.06,WeatherDisplay:10.37,2013-06-28 04:56:00,
2013-06-28 06:01:00,55.2,52.0,29.60,West,270,0.0,0.0,89,0.06,RA,SKC,0.06,WeatherDisplay:10.37,2013-06-28 05:01:00,
2013-06-28 06:06:00,55.2,52.0,29.60,NNW,338,0.0,0.0,89,0.06,CLR,SKC,0.06,WeatherDisplay:10.37,2013-06-28 05:06:00,
2013-06-28 06:11:00,55.2,52.0,29.59,NNW,338,0.0,0.0,89,0.06,CLR,SKC,0.06,WeatherDisplay:10.37,2013-06-28 05:11:00,
2013-06-28 06:16:00,55.2,52.0,29.58,WSW,248,0.0,0.0,89,0.06,CLR,SKC,0.06,WeatherDisplay:10.37,2013-06-28 05:16:00,
2013-06-28 06:21:00,55.2,52.0,29.58,West,270,0.0,0.0,89,0.10,RA,SKC,0.10,WeatherDisplay:10.37,2013-06-28 05:21:00,
2013-06-28 06:26:00,55.2,52.3,29.59,WNW,292,0.0,0.0,90,0.10,RA,SKC,0.10,WeatherDisplay:10.37,2013-06-28 05:26:00,
2013-06-28 06:31:00,55.2,52.3,29.58,WNW,292,0.0,0.0,90,0.10,,SKC,0.10,WeatherDisplay:10.37,2013-06-28 05:31:00,
2013-06-28 06:36:00,55.2,52.3,29.58,SSW,202,0.0,0.0,90,0.10,CLR,SKC,0.10,WeatherDisplay:10.37,2013-06-28 05:36:00,
2013-06-28 06:41:00,55.2,52.3,29.59,NNW,338,0.0,0.0,90,0.10,CLR,SKC,0.10,WeatherDisplay:10.37,2013-06-28 05:41:00,
2013-06-28 06:46:00,55.2,52.3,29.59,NW,315,0.0,0.0,90,0.10,RA,SKC,0.12,WeatherDisplay:10.37,2013-06-28 05:46:00,
2013-06-28 06:51:00,55.2,52.3,29.59,South,180,0.0,0.0,90,0.10,RA,SKC,0.12,WeatherDisplay:10.37,2013-06-28 05:51:00,
2013-06-28 06:56:00,55.4,52.5,29.59,West,270,0.0,0.0,90,0.06,,SKC,0.12,WeatherDisplay:10.37,2013-06-28 05:56:00,
2013-06-28 07:01:00,55.2,52.3,29.59,WNW,292,0.0,0.0,90,0.06,CLR,SKC,0.12,WeatherDisplay:10.37,2013-06-28 06:01:00,
2013-06-28 07:06:00,55.4,52.5,29.59,NW,315,0.0,0.0,90,0.06,CLR,SKC,0.12,WeatherDisplay:10.37,2013-06-28 06:06:00,
2013-06-28 07:11:00,55.4,52.5,29.58,NNW,338,0.0,0.0,90,0.06,CLR,SKC,0.12,WeatherDisplay:10.37,2013-06-28 06:11:00,
2013-06-28 07:16:00,55.4,52.5,29.58,WNW,292,0.0,0.0,90,0.06,CLR,SKC,0.12,WeatherDisplay:10.37,2013-06-28 06:16:00,
2013-06-28 07:21:00,55.6,52.7,29.58,NW,315,0.0,0.0,90,0.02,CLR,SKC,0.12,WeatherDisplay:10.37,2013-06-28 06:21:00,
2013-06-28 07:27:00,55.6,52.7,29.58,WNW,292,0.0,0.0,90,0.02,CLR,SKC,0.12,WeatherDisplay:10.37,2013-06-28 06:27:00,
2013-06-28 07:32:00,55.6,52.7,29.58,WNW,292,0.0,0.0,90,0.04,RA,SKC,0.14,WeatherDisplay:10.37,2013-06-28 06:32:00,
2013-06-28 07:37:00,55.6,52.7,29.58,NW,315,0.0,0.0,90,0.04,RA,SKC,0.14,WeatherDisplay:10.37,2013-06-28 06:37:00,
2013-06-28 07:42:00,55.6,52.7,29.58,West,270,0.0,0.0,90,0.04,,SKC,0.14,WeatherDisplay:10.37,2013-06-28 06:42:00,
2013-06-28 07:47:00,55.8,52.9,29.57,NW,315,0.0,0.0,90,0.02,CLR,SKC,0.14,WeatherDisplay:10.37,2013-06-28 06:47:00,
2013-06-28 07:52:00,55.9,53.4,29.57,NW,315,0.0,0.0,91,0.02,CLR,SKC,0.14,WeatherDisplay:10.37,2013-06-28 06:52:00,
2013-06-28 07:57:00,55.9,53.4,29.57,NNW,338,0.0,0.0,91,0.02,CLR,SKC,0.14,WeatherDisplay:10.37,2013-06-28 06:57:00,
2013-06-28 08:02:00,55.9,53.4,29.57,WSW,248,0.0,0.0,91,0.02,CLR,SKC,0.14,WeatherDisplay:10.37,2013-06-28 07:02:00,
2013-06-28 08:07:00,56.1,53.5,29.57,NNW,338,0.0,0.0,91,0.02,CLR,SKC,0.14,WeatherDisplay:10.37,2013-06-28 07:07:00,
2013-06-28 08:12:00,56.1,53.5,29.57,NNW,338,0.0,0.0,91,0.02,CLR,SKC,0.14,WeatherDisplay:10.37,2013-06-28 07:12:00,
2013-06-28 08:17:00,56.1,53.5,29.57,WNW,292,0.0,0.0,91,0.02,CLR,SKC,0.14,WeatherDisplay:10.37,2013-06-28 07:17:00,
2013-06-28 08:22:00,56.3,53.7,29.56,WNW,292,0.0,0.0,91,0.02,CLR,SKC,0.14,WeatherDisplay:10.37,2013-06-28 07:22:00,
2013-06-28 08:27:00,56.3,53.7,29.56,WNW,292,0.0,0.0,91,0.02,CLR,SKC,0.14,WeatherDisplay:10.37,2013-06-28 07:27:00,
2013-06-28 08:32:00,56.5,53.9,29.56,WSW,248,0.0,0.0,91,0.00,CLR,SKC,0.14,WeatherDisplay:10.37,2013-06-28 07:32:00,
2013-06-28 08:37:00,56.5,53.6,29.56,WSW,248,0.0,0.0,90,0.00,CLR,SKC,0.14,WeatherDisplay:10.37,2013-06-28 07:37:00,
2013-06-28 08:42:00,56.8,53.9,29.55,WNW,292,0.0,0.0,90,0.00,CLR,SKC,0.14,WeatherDisplay:10.37,2013-06-28 07:42:00,
2013-06-28 08:47:00,56.8,53.9,29.55,WNW,292,0.0,0.0,90,0.00,CLR,SKC,0.14,WeatherDisplay:10.37,2013-06-28 07:47:00,
2013-06-28 08:52:00,57.0,54.1,29.55,WNW,292,0.0,0.0,90,0.00,CLR,SKC,0.14,WeatherDisplay:10.37,2013-06-28 07:52:00,
2013-06-28 08:57:00,57.0,54.1,29.55,NW,315,0.0,0.0,90,0.00,CLR,SKC,0.14,WeatherDisplay:10.37,2013-06-28 07:57:00,
2013-06-28 09:02:00,57.0,54.1,29.55,SW,225,0.0,0.0,90,0.00,CLR,SKC,0.14,WeatherDisplay:10.37,2013-06-28 08:02:00,
2013-06-28 09:07:00,57.0,54.1,29.55,SW,225,0.0,0.0,90,0.00,CLR,SKC,0.14,WeatherDisplay:10.37,2013-06-28 08:07:00,
2013-06-28 09:12:00,57.0,54.1,29.54,WNW,292,0.0,0.0,90,0.00,CLR,SKC,0.14,WeatherDisplay:10.37,2013-06-28 08:12:00,
2013-06-28 09:17:00,57.4,54.5,29.54,West,270,0.0,0.0,90,0.00,CLR,SKC,0.14,WeatherDisplay:10.37,2013-06-28 08:17:00,
2013-06-28 09:22:00,57.4,54.5,29.53,WSW,248,0.0,0.0,90,0.00,CLR,SKC,0.14,WeatherDisplay:10.37,2013-06-28 08:22:00,
2013-06-28 09:27:00,57.7,54.5,29.53,SSE,158,0.0,0.0,89,0.00,CLR,SKC,0.14,WeatherDisplay:10.37,2013-06-28 08:27:00,
2013-06-28 09:32:00,57.7,54.5,29.53,SW,225,0.0,0.0,89,0.00,CLR,SKC,0.14,WeatherDisplay:10.37,2013-06-28 08:32:00,
2013-06-28 09:37:00,57.9,54.7,29.53,West,270,0.0,0.0,89,0.00,CLR,SKC,0.14,WeatherDisplay:10.37,2013-06-28 08:37:00,
2013-06-28 09:42:00,58.1,54.9,29.53,WNW,292,0.0,0.0,89,0.00,CLR,SKC,0.14,WeatherDisplay:10.37,2013-06-28 08:42:00,
2013-06-28 09:47:00,58.5,55.2,29.54,WSW,248,0.0,0.0,89,0.00,CLR,SKC,0.14,WeatherDisplay:10.37,2013-06-28 08:47:00,
2013-06-28 09:52:00,58.6,55.4,29.54,West,270,0.0,0.0,89,0.00,CLR,SKC,0.14,WeatherDisplay:10.37,2013-06-28 08:52:00,
2013-06-28 09:57:00,58.6,55.4,29.53,West,270,0.0,0.0,89,0.00,CLR,SKC,0.14,WeatherDisplay:10.37,2013-06-28 08:57:00,
2013-06-28 10:02:00,58.3,54.7,29.53,SW,225,0.0,0.0,88,0.00,CLR,SKC,0.14,WeatherDisplay:10.37,2013-06-28 09:02:00,
2013-06-28 10:07:00,58.3,54.7,29.53,SSW,202,0.0,0.0,88,0.00,CLR,SKC,0.14,WeatherDisplay:10.37,2013-06-28 09:07:00,
2013-06-28 10:12:00,58.1,54.6,29.52,WNW,292,0.0,0.0,88,0.00,CLR,SKC,0.14,WeatherDisplay:10.37,2013-06-28 09:12:00,
2013-06-28 10:17:00,58.1,54.6,29.52,West,270,0.0,0.0,88,0.00,CLR,SKC,0.14,WeatherDisplay:10.37,2013-06-28 09:17:00,
2013-06-28 10:22:00,58.6,55.4,29.52,West,270,0.0,0.0,89,0.00,CLR,SKC,0.14,WeatherDisplay:10.37,2013-06-28 09:22:00,
2013-06-28 10:27:00,58.8,55.6,29.52,SW,225,0.0,0.0,89,0.00,CLR,SKC,0.14,WeatherDisplay:10.37,2013-06-28 09:27:00,
2013-06-28 10:32:00,58.8,55.6,29.52,WSW,248,0.0,0.0,89,0.00,CLR,SKC,0.14,WeatherDisplay:10.37,2013-06-28 09:32:00,
2013-06-28 10:37:00,58.8,55.3,29.52,WSW,248,0.0,0.0,88,0.00,CLR,SKC,0.14,WeatherDisplay:10.37,2013-06-28 09:37:00,
2013-06-28 10:42:00,58.8,55.3,29.52,WNW,292,0.0,0.0,88,0.00,CLR,SKC,0.14,WeatherDisplay:10.37,2013-06-28 09:42:00,
2013-06-28 10:47:00,58.8,55.3,29.52,WNW,292,0.0,0.0,88,0.00,CLR,SKC,0.14,WeatherDisplay:10.37,2013-06-28 09:47:00,
2013-06-28 10:52:00,58.8,55.3,29.51,WNW,292,0.0,0.0,88,0.00,CLR,SKC,0.14,WeatherDisplay:10.37,2013-06-28 09:52:00,
2013-06-28 10:57:00,58.8,55.3,29.51,West,270,0.0,0.0,88,0.00,CLR,SKC,0.14,WeatherDisplay:10.37,2013-06-28 09:57:00,
2013-06-28 11:02:00,58.8,55.3,29.51,WNW,292,0.0,0.0,88,0.00,CLR,SKC,0.14,WeatherDisplay:10.37,2013-06-28 10:02:00,
2013-06-28 11:07:00,58.8,55.3,29.51,WNW,292,0.0,0.0,88,0.00,CLR,SKC,0.14,WeatherDisplay:10.37,2013-06-28 10:07:00,
2013-06-28 11:12:00,58.8,55.3,29.50,West,270,0.0,0.0,88,0.00,CLR,SKC,0.14,WeatherDisplay:10.37,2013-06-28 10:12:00,
2013-06-28 11:17:00,58.8,55.3,29.50,WSW,248,0.0,0.0,88,0.00,CLR,SKC,0.14,WeatherDisplay:10.37,2013-06-28 10:17:00,
2013-06-28 11:22:00,58.8,55.3,29.49,WNW,292,0.0,0.0,88,0.00,CLR,SKC,0.14,WeatherDisplay:10.37,2013-06-28 10:22:00,
2013-06-28 11:27:00,58.8,55.3,29.49,WNW,292,0.0,0.0,88,0.00,CLR,SKC,0.14,WeatherDisplay:10.37,2013-06-28 10:27:00,
2013-06-28 11:32:00,58.8,55.0,29.49,WNW,292,0.0,0.0,87,0.00,CLR,SKC,0.14,WeatherDisplay:10.37,2013-06-28 10:32:00,
2013-06-28 11:37:00,59.0,55.1,29.49,SSW,202,0.0,0.0,87,0.00,CLR,SKC,0.14,WeatherDisplay:10.37,2013-06-28 10:37:00,
2013-06-28 11:42:00,59.0,55.1,29.49,SW,225,0.0,0.0,87,0.00,CLR,SKC,0.14,WeatherDisplay:10.37,2013-06-28 10:42:00,
2013-06-28 11:47:00,58.8,55.0,29.49,West,270,0.0,0.0,87,0.00,CLR,SKC,0.14,WeatherDisplay:10.37,2013-06-28 10:47:00,
2013-06-28 11:52:00,58.8,55.0,29.49,WNW,292,0.0,0.0,87,0.00,CLR,SKC,0.14,WeatherDisplay:10.37,2013-06-28 10:52:00,
2013-06-28 11:57:00,59.2,55.3,29.48,SSW,202,0.0,0.0,87,0.00,CLR,SKC,0.14,WeatherDisplay:10.37,2013-06-28 10:57:00,
2013-06-28 12:02:00,59.9,56.0,29.48,WNW,292,0.0,0.0,87,0.00,CLR,SKC,0.14,WeatherDisplay:10.37,2013-06-28 11:02:00,
2013-06-28 12:07:00,60.6,56.7,29.48,NNW,338,0.0,0.0,87,0.00,CLR,SKC,0.14,WeatherDisplay:10.37,2013-06-28 11:07:00,
2013-06-28 12:12:00,60.6,56.4,29.49,NNW,338,0.0,0.0,86,0.00,CLR,SKC,0.14,WeatherDisplay:10.37,2013-06-28 11:12:00,
2013-06-28 12:17:00,61.0,56.4,29.48,WSW,248,0.0,0.0,85,0.00,CLR,SKC,0.14,WeatherDisplay:10.37,2013-06-28 11:17:00,
2013-06-28 12:22:00,61.2,56.6,29.48,WSW,248,0.0,0.0,85,0.00,CLR,SKC,0.14,WeatherDisplay:10.37,2013-06-28 11:22:00,
2013-06-28 12:27:00,61.9,57.0,29.47,WSW,248,0.0,0.0,84,0.00,CLR,SKC,0.14,WeatherDisplay:10.37,2013-06-28 11:27:00,
2013-06-28 12:32:00,62.1,57.2,29.47,WNW,292,0.0,0.0,84,0.00,CLR,SKC,0.14,WeatherDisplay:10.37,2013-06-28 11:32:00,
2013-06-28 12:37:00,61.5,56.3,29.48,WSW,248,0.0,0.0,83,0.00,CLR,SKC,0.14,WeatherDisplay:10.37,2013-06-28 11:37:00,
2013-06-28 12:42:00,61.2,56.0,29.48,West,270,0.0,0.0,83,0.00,CLR,SKC,0.14,WeatherDisplay:10.37,2013-06-28 11:42:00,
2013-06-28 12:47:00,61.0,55.8,29.47,WSW,248,0.0,0.0,83,0.00,CLR,SKC,0.14,WeatherDisplay:10.37,2013-06-28 11:47:00,
2013-06-28 12:52:00,60.8,55.6,29.47,West,270,0.0,0.0,83,0.00,CLR,SKC,0.14,WeatherDisplay:10.37,2013-06-28 11:52:00,
2013-06-28 12:57:00,60.6,55.4,29.47,WSW,248,0.0,0.0,83,0.00,CLR,SKC,0.14,WeatherDisplay:10.37,2013-06-28 11:57:00,
2013-06-28 13:03:00,60.6,55.4,29.47,West,270,0.0,0.0,83,0.00,CLR,SKC,0.14,WeatherDisplay:10.37,2013-06-28 12:03:00,
2013-06-28 13:08:00,61.2,56.0,29.46,WNW,292,0.0,0.0,83,0.00,CLR,SKC,0.14,WeatherDisplay:10.37,2013-06-28 12:08:00,
2013-06-28 13:13:00,61.7,56.5,29.47,WSW,248,0.0,0.0,83,0.00,CLR,SKC,0.14,WeatherDisplay:10.37,2013-06-28 12:13:00,
2013-06-28 13:18:00,61.7,56.1,29.47,West,270,0.0,0.0,82,0.00,CLR,SKC,0.14,WeatherDisplay:10.37,2013-06-28 12:18:00,
2013-06-28 13:23:00,61.5,56.0,29.46,WNW,292,0.0,0.0,82,0.00,CLR,SKC,0.14,WeatherDisplay:10.37,2013-06-28 12:23:00,
2013-06-28 13:28:00,61.7,55.8,29.46,SW,225,0.0,0.0,81,0.00,CLR,SKC,0.14,WeatherDisplay:10.37,2013-06-28 12:28:00,
2013-06-28 13:33:00,62.2,56.3,29.46,WNW,292,0.0,0.0,81,0.00,CLR,SKC,0.14,WeatherDisplay:10.37,2013-06-28 12:33:00,
2013-06-28 13:38:00,62.6,56.7,29.46,West,270,0.0,0.0,81,0.00,CLR,SKC,0.14,WeatherDisplay:10.37,2013-06-28 12:38:00,
2013-06-28 13:43:00,62.8,56.5,29.46,SSW,202,0.0,0.0,80,0.00,CLR,SKC,0.14,WeatherDisplay:10.37,2013-06-28 12:43:00,
2013-06-28 13:48:00,62.8,56.5,29.46,NW,315,0.0,0.0,80,0.00,CLR,SKC,0.14,WeatherDisplay:10.37,2013-06-28 12:48:00,
2013-06-28 13:53:00,62.8,56.5,29.46,NW,315,0.0,0.0,80,0.00,CLR,SKC,0.14,WeatherDisplay:10.37,2013-06-28 12:53:00,
2013-06-28 13:58:00,63.3,57.0,29.46,WSW,248,0.0,0.0,80,0.00,CLR,SKC,0.14,WeatherDisplay:10.37,2013-06-28 12:58:00,
2013-06-28 14:03:00,63.5,56.9,29.47,WSW,248,0.0,0.0,79,0.00,CLR,SKC,0.14,WeatherDisplay:10.37,2013-06-28 13:03:00,
2013-06-28 14:08:00,63.7,56.7,29.47,NW,315,0.0,0.0,78,0.00,CLR,SKC,0.14,WeatherDisplay:10.37,2013-06-28 13:08:00,
2013-06-28 14:13:00,63.5,56.5,29.47,West,270,0.0,0.0,78,0.00,CLR,SKC,0.14,WeatherDisplay:10.37,2013-06-28 13:13:00,
2013-06-28 14:18:00,63.5,56.5,29.47,SSW,202,0.0,0.0,78,0.00,CLR,SKC,0.14,WeatherDisplay:10.37,2013-06-28 13:18:00,
2013-06-28 14:23:00,63.7,56.7,29.46,West,270,0.0,0.0,78,0.00,CLR,SKC,0.14,WeatherDisplay:10.37,2013-06-28 13:23:00,
2013-06-28 14:28:00,64.2,57.6,29.46,West,270,0.0,0.0,79,0.00,CLR,SKC,0.14,WeatherDisplay:10.37,2013-06-28 13:28:00,
2013-06-28 14:33:00,65.5,58.4,29.46,West,270,0.0,0.0,78,0.00,CLR,SKC,0.14,WeatherDisplay:10.37,2013-06-28 13:33:00,
2013-06-28 14:38:00,66.6,59.1,29.46,WNW,292,0.0,0.0,77,0.00,CLR,SKC,0.14,WeatherDisplay:10.37,2013-06-28 13:38:00,
2013-06-28 14:43:00,66.9,59.1,29.46,WSW,248,0.0,0.0,76,0.00,CLR,SKC,0.14,WeatherDisplay:10.37,2013-06-28 13:43:00,
2013-06-28 14:48:00,67.3,59.1,29.46,North,0,0.0,0.0,75,0.00,CLR,SKC,0.14,WeatherDisplay:10.37,2013-06-28 13:48:00,
2013-06-28 14:53:00,67.3,58.7,29.46,WNW,292,0.0,0.0,74,0.00,CLR,SKC,0.14,WeatherDisplay:10.37,2013-06-28 13:53:00,
2013-06-28 14:58:00,66.7,57.8,29.46,SSW,202,0.0,0.0,73,0.00,CLR,SKC,0.14,WeatherDisplay:10.37,2013-06-28 13:58:00,
2013-06-28 15:03:00,66.6,57.6,29.46,WNW,292,0.0,0.0,73,0.00,CLR,SKC,0.14,WeatherDisplay:10.37,2013-06-28 14:03:00,
2013-06-28 15:08:00,66.7,57.8,29.46,West,270,0.0,0.0,73,0.00,CLR,SKC,0.14,WeatherDisplay:10.37,2013-06-28 14:08:00,
2013-06-28 15:13:00,66.7,57.8,29.46,NW,315,0.0,0.0,73,0.00,CLR,SKC,0.14,WeatherDisplay:10.37,2013-06-28 14:13:00,
2013-06-28 15:18:00,66.7,57.8,29.46,SW,225,0.0,0.0,73,0.00,CLR,SKC,0.14,WeatherDisplay:10.37,2013-06-28 14:18:00,
2013-06-28 15:23:00,66.7,57.4,29.46,West,270,0.0,0.0,72,0.00,CLR,SKC,0.14,WeatherDisplay:10.37,2013-06-28 14:23:00,
2013-06-28 15:28:00,66.4,57.1,29.46,NW,315,0.0,0.0,72,0.00,CLR,SKC,0.14,WeatherDisplay:10.37,2013-06-28 14:28:00,
2013-06-28 15:33:00,66.2,56.9,29.46,NW,315,0.0,0.0,72,0.00,CLR,SKC,0.14,WeatherDisplay:10.37,2013-06-28 14:33:00,
2013-06-28 15:38:00,66.4,57.1,29.46,NW,315,0.0,0.0,72,0.00,CLR,SKC,0.14,WeatherDisplay:10.37,2013-06-28 14:38:00,
2013-06-28 15:43:00,66.9,57.6,29.45,WNW,292,0.0,0.0,72,0.00,CLR,SKC,0.14,WeatherDisplay:10.37,2013-06-28 14:43:00,
2013-06-28 15:48:00,66.9,57.2,29.45,West,270,0.0,0.0,71,0.00,CLR,SKC,0.14,WeatherDisplay:10.37,2013-06-28 14:48:00,
2013-06-28 15:53:00,66.4,56.3,29.45,West,270,0.0,0.0,70,0.00,CLR,SKC,0.14,WeatherDisplay:10.37,2013-06-28 14:53:00,
2013-06-28 15:58:00,66.4,56.3,29.45,NNW,338,0.0,0.0,70,0.00,CLR,SKC,0.14,WeatherDisplay:10.37,2013-06-28 14:58:00,
2013-06-28 16:03:00,66.4,56.7,29.46,North,0,0.0,0.0,71,0.00,CLR,SKC,0.14,WeatherDisplay:10.37,2013-06-28 15:03:00,
2013-06-28 16:08:00,66.0,56.3,29.46,NNW,338,0.0,0.0,71,0.00,CLR,SKC,0.14,WeatherDisplay:10.37,2013-06-28 15:08:00,
2013-06-28 16:13:00,66.4,56.7,29.45,NNW,338,0.0,0.0,71,0.00,CLR,SKC,0.14,WeatherDisplay:10.37,2013-06-28 15:13:00,
2013-06-28 16:18:00,66.7,57.0,29.46,NW,315,0.0,0.0,71,0.00,CLR,SKC,0.14,WeatherDisplay:10.37,2013-06-28 15:18:00,
2013-06-28 16:23:00,66.7,56.6,29.46,West,270,0.0,0.0,70,0.00,CLR,SKC,0.14,WeatherDisplay:10.37,2013-06-28 15:23:00,
2013-06-28 16:28:00,66.6,56.1,29.46,North,0,0.0,0.0,69,0.00,CLR,SKC,0.14,WeatherDisplay:10.37,2013-06-28 15:28:00,
2013-06-28 16:33:00,66.6,56.1,29.46,NW,315,0.0,0.0,69,0.00,CLR,SKC,0.14,WeatherDisplay:10.37,2013-06-28 15:33:00,
2013-06-28 16:38:00,66.7,55.8,29.47,NNW,338,0.0,0.0,68,0.00,CLR,SKC,0.14,WeatherDisplay:10.37,2013-06-28 15:38:00,
2013-06-28 16:43:00,66.9,56.4,29.47,North,0,0.0,0.0,69,0.00,CLR,SKC,0.14,WeatherDisplay:10.37,2013-06-28 15:43:00,
2013-06-28 16:48:00,67.3,56.8,29.47,NW,315,0.0,0.0,69,0.00,CLR,SKC,0.14,WeatherDisplay:10.37,2013-06-28 15:48:00,
2013-06-28 16:53:00,68.2,57.2,29.47,NW,315,0.0,0.0,68,0.00,CLR,SKC,0.14,WeatherDisplay:10.37,2013-06-28 15:53:00,
2013-06-28 16:58:00,68.4,57.4,29.47,WNW,292,0.0,0.0,68,0.00,CLR,SKC,0.14,WeatherDisplay:10.37,2013-06-28 15:58:00,
2013-06-28 17:03:00,68.4,57.0,29.47,WNW,292,0.0,0.0,67,0.00,CLR,SKC,0.14,WeatherDisplay:10.37,2013-06-28 16:03:00,
2013-06-28 17:08:00,68.0,56.2,29.47,WNW,292,0.0,0.0,66,0.00,CLR,SKC,0.14,WeatherDisplay:10.37,2013-06-28 16:08:00,
2013-06-28 17:14:00,67.8,56.0,29.48,South,180,0.0,0.0,66,0.00,CLR,SKC,0.14,WeatherDisplay:10.37,2013-06-28 16:14:00,
2013-06-28 17:19:00,67.1,55.4,29.47,NNW,338,0.0,0.0,66,0.00,CLR,SKC,0.14,WeatherDisplay:10.37,2013-06-28 16:19:00,
2013-06-28 17:24:00,66.6,54.8,29.48,NNW,338,0.0,0.0,66,0.00,CLR,SKC,0.14,WeatherDisplay:10.37,2013-06-28 16:24:00,
2013-06-28 17:29:00,66.4,54.7,29.49,NW,315,0.0,0.0,66,0.00,CLR,SKC,0.14,WeatherDisplay:10.37,2013-06-28 16:29:00,
2013-06-28 17:34:00,65.5,53.8,29.48,NW,315,0.0,0.0,66,0.00,CLR,SKC,0.14,WeatherDisplay:10.37,2013-06-28 16:34:00,
2013-06-28 17:39:00,64.9,53.7,29.48,West,270,0.0,0.0,67,0.00,CLR,SKC,0.14,WeatherDisplay:10.37,2013-06-28 16:39:00,
2013-06-28 17:44:00,64.8,53.5,29.48,NNW,338,0.0,0.0,67,0.00,CLR,SKC,0.14,WeatherDisplay:10.37,2013-06-28 16:44:00,
2013-06-28 17:49:00,64.9,53.7,29.49,NW,315,0.0,0.0,67,0.00,CLR,SKC,0.14,WeatherDisplay:10.37,2013-06-28 16:49:00,
2013-06-28 17:54:00,65.1,53.9,29.48,West,270,0.0,0.0,67,0.00,CLR,SKC,0.14,WeatherDisplay:10.37,2013-06-28 16:54:00,
2013-06-28 17:59:00,65.3,53.6,29.49,WNW,292,0.0,0.0,66,0.00,CLR,SKC,0.14,WeatherDisplay:10.37,2013-06-28 16:59:00,
2013-06-28 18:04:00,65.3,53.6,29.48,NW,315,0.0,0.0,66,0.00,CLR,SKC,0.14,WeatherDisplay:10.37,2013-06-28 17:04:00,
2013-06-28 18:09:00,65.8,53.3,29.48,WNW,292,0.0,0.0,64,0.00,CLR,SKC,0.14,WeatherDisplay:10.37,2013-06-28 17:09:00,
2013-06-28 18:14:00,66.2,53.7,29.49,NW,315,0.0,0.0,64,0.00,CLR,SKC,0.14,WeatherDisplay:10.37,2013-06-28 17:14:00,
2013-06-28 18:19:00,65.8,52.9,29.50,NW,315,0.0,0.0,63,0.00,CLR,SKC,0.14,WeatherDisplay:10.37,2013-06-28 17:19:00,
2013-06-28 18:24:00,66.9,53.9,29.50,West,270,0.0,0.0,63,0.00,CLR,SKC,0.14,WeatherDisplay:10.37,2013-06-28 17:24:00,
2013-06-28 18:29:00,69.6,55.1,29.50,WNW,292,0.0,0.0,60,0.00,CLR,SKC,0.14,WeatherDisplay:10.37,2013-06-28 17:29:00,
2013-06-28 18:34:00,70.9,55.4,29.50,NW,315,0.0,0.0,58,0.00,CLR,SKC,0.14,WeatherDisplay:10.37,2013-06-28 17:34:00,
2013-06-28 18:39:00,69.4,53.1,29.50,NW,315,0.0,0.0,56,0.00,CLR,SKC,0.14,WeatherDisplay:10.37,2013-06-28 17:39:00,
2013-06-28 18:44:00,68.4,52.0,29.50,NW,315,0.0,0.0,56,0.00,CLR,SKC,0.14,WeatherDisplay:10.37,2013-06-28 17:44:00,
2013-06-28 18:49:00,66.7,51.0,29.50,WNW,292,0.0,0.0,57,0.00,CLR,SKC,0.14,WeatherDisplay:10.37,2013-06-28 17:49:00,
2013-06-28 18:54:00,66.4,51.2,29.50,NW,315,0.0,0.0,58,0.00,CLR,SKC,0.14,WeatherDisplay:10.37,2013-06-28 17:54:00,
2013-06-28 18:59:00,66.2,51.0,29.51,SW,225,0.0,0.0,58,0.00,CLR,SKC,0.14,WeatherDisplay:10.37,2013-06-28 17:59:00,
2013-06-28 19:04:00,66.6,51.3,29.51,West,270,0.0,0.0,58,0.00,CLR,SKC,0.14,WeatherDisplay:10.37,2013-06-28 18:04:00,
2013-06-28 19:09:00,67.5,51.2,29.51,NNW,338,0.0,0.0,56,0.00,CLR,SKC,0.14,WeatherDisplay:10.37,2013-06-28 18:09:00,
2013-06-28 19:14:00,66.7,50.5,29.51,West,270,0.0,0.0,56,0.00,CLR,SKC,0.14,WeatherDisplay:10.37,2013-06-28 18:14:00,
2013-06-28 19:19:00,65.1,49.0,29.51,NNW,338,0.0,0.0,56,0.00,CLR,SKC,0.14,WeatherDisplay:10.37,2013-06-28 18:19:00,
2013-06-28 19:24:00,66.0,50.3,29.51,NNW,338,0.0,0.0,57,0.00,CLR,SKC,0.14,WeatherDisplay:10.37,2013-06-28 18:24:00,
2013-06-28 19:29:00,66.4,49.7,29.51,North,0,0.0,0.0,55,0.00,CLR,SKC,0.14,WeatherDisplay:10.37,2013-06-28 18:29:00,
2013-06-28 19:34:00,66.0,49.4,29.52,WNW,292,0.0,0.0,55,0.00,CLR,SKC,0.14,WeatherDisplay:10.37,2013-06-28 18:34:00,
2013-06-28 19:39:00,64.8,48.2,29.52,NW,315,0.0,0.0,55,0.00,CLR,SKC,0.14,WeatherDisplay:10.37,2013-06-28 18:39:00,
2013-06-28 19:44:00,64.6,48.0,29.53,WNW,292,0.0,0.0,55,0.00,CLR,SKC,0.14,WeatherDisplay:10.37,2013-06-28 18:44:00,
2013-06-28 19:49:00,64.0,48.0,29.53,West,270,0.0,0.0,56,0.00,CLR,SKC,0.14,WeatherDisplay:10.37,2013-06-28 18:49:00,
2013-06-28 19:54:00,62.8,46.8,29.53,WNW,292,0.0,0.0,56,0.00,CLR,SKC,0.14,WeatherDisplay:10.37,2013-06-28 18:54:00,
2013-06-28 19:59:00,61.7,46.3,29.53,NW,315,0.0,0.0,57,0.00,CLR,SKC,0.14,WeatherDisplay:10.37,2013-06-28 18:59:00,
2013-06-28 20:04:00,60.4,45.6,29.53,NNW,338,0.0,0.0,58,0.00,CLR,SKC,0.14,WeatherDisplay:10.37,2013-06-28 19:04:00,
2013-06-28 20:09:00,59.7,45.4,29.53,West,270,0.0,0.0,59,0.00,CLR,SKC,0.14,WeatherDisplay:10.37,2013-06-28 19:09:00,
2013-06-28 20:14:00,59.0,44.7,29.53,NW,315,0.0,0.0,59,0.00,CLR,SKC,0.14,WeatherDisplay:10.37,2013-06-28 19:14:00,
2013-06-28 20:19:00,58.3,44.0,29.53,NW,315,0.0,0.0,59,0.00,CLR,SKC,0.14,WeatherDisplay:10.37,2013-06-28 19:19:00,
2013-06-28 20:24:00,57.9,44.1,29.54,NW,315,0.0,0.0,60,0.00,CLR,SKC,0.14,WeatherDisplay:10.37,2013-06-28 19:24:00,
2013-06-28 20:29:00,57.9,44.5,29.54,West,270,0.0,0.0,61,0.00,CLR,SKC,0.14,WeatherDisplay:10.37,2013-06-28 19:29:00,
2013-06-28 20:34:00,57.2,43.9,29.54,NW,315,0.0,0.0,61,0.00,CLR,SKC,0.14,WeatherDisplay:10.37,2013-06-28 19:34:00,
2013-06-28 20:39:00,57.0,43.7,29.55,West,270,0.0,0.0,61,0.00,CLR,SKC,0.14,WeatherDisplay:10.37,2013-06-28 19:39:00,
2013-06-28 20:44:00,56.8,44.0,29.55,NW,315,0.0,0.0,62,0.00,CLR,SKC,0.14,WeatherDisplay:10.37,2013-06-28 19:44:00,
2013-06-28 20:49:00,56.5,43.6,29.55,NW,315,0.0,0.0,62,0.00,CLR,SKC,0.14,WeatherDisplay:10.37,2013-06-28 19:49:00,
2013-06-28 20:54:00,56.3,43.4,29.55,West,270,0.0,0.0,62,0.00,CLR,SKC,0.14,WeatherDisplay:10.37,2013-06-28 19:54:00,
2013-06-28 20:59:00,56.1,43.3,29.56,WNW,292,0.0,0.0,62,0.00,CLR,SKC,0.14,WeatherDisplay:10.37,2013-06-28 19:59:00,
2013-06-28 21:04:00,55.9,43.1,29.56,NNW,338,0.0,0.0,62,0.00,CLR,SKC,0.14,WeatherDisplay:10.37,2013-06-28 20:04:00,
2013-06-28 21:09:00,55.6,43.2,29.56,NNW,338,0.0,0.0,63,0.00,CLR,SKC,0.14,WeatherDisplay:10.37,2013-06-28 20:09:00,
2013-06-28 21:14:00,55.4,43.0,29.57,WNW,292,0.0,0.0,63,0.00,CLR,SKC,0.14,WeatherDisplay:10.37,2013-06-28 20:14:00,
2013-06-28 21:19:00,55.0,43.1,29.57,North,0,0.0,0.0,64,0.00,CLR,SKC,0.14,WeatherDisplay:10.37,2013-06-28 20:19:00,
2013-06-28 21:24:00,54.7,42.7,29.57,WNW,292,0.0,0.0,64,0.00,CLR,SKC,0.14,WeatherDisplay:10.37,2013-06-28 20:24:00,
2013-06-28 21:29:00,54.5,42.6,29.57,WNW,292,0.0,0.0,64,0.00,CLR,SKC,0.14,WeatherDisplay:10.37,2013-06-28 20:29:00,
2013-06-28 21:34:00,54.3,42.8,29.57,WNW,292,0.0,0.0,65,0.00,CLR,SKC,0.14,WeatherDisplay:10.37,2013-06-28 20:34:00,
2013-06-28 21:39:00,54.3,42.8,29.57,West,270,0.0,0.0,65,0.00,CLR,SKC,0.14,WeatherDisplay:10.37,2013-06-28 20:39:00,
2013-06-28 21:44:00,54.0,42.5,29.57,WNW,292,0.0,0.0,65,0.00,CLR,SKC,0.14,WeatherDisplay:10.37,2013-06-28 20:44:00,
2013-06-28 21:49:00,53.8,42.3,29.57,NW,315,0.0,0.0,65,0.00,CLR,SKC,0.14,WeatherDisplay:10.37,2013-06-28 20:49:00,
2013-06-28 21:54:00,53.4,41.9,29.57,NW,315,0.0,0.0,65,0.00,CLR,SKC,0.14,WeatherDisplay:10.37,2013-06-28 20:54:00,
2013-06-28 21:59:00,53.4,42.3,29.57,NW,315,0.0,0.0,66,0.00,CLR,SKC,0.14,WeatherDisplay:10.37,2013-06-28 20:59:00,
2013-06-28 22:04:00,53.4,42.3,29.58,WNW,292,0.0,0.0,66,0.00,CLR,SKC,0.14,WeatherDisplay:10.37,2013-06-28 21:04:00,
2013-06-28 22:09:00,53.2,42.2,29.58,NW,315,0.0,0.0,66,0.00,CLR,SKC,0.14,WeatherDisplay:10.37,2013-06-28 21:09:00,
2013-06-28 22:14:00,52.9,41.8,29.59,WNW,292,0.0,0.0,66,0.00,CLR,SKC,0.14,WeatherDisplay:10.37,2013-06-28 21:14:00,
2013-06-28 22:19:00,52.9,41.8,29.59,WNW,292,0.0,0.0,66,0.00,CLR,SKC,0.14,WeatherDisplay:10.37,2013-06-28 21:19:00,
2013-06-28 22:24:00,52.7,42.0,29.59,West,270,0.0,0.0,67,0.00,CLR,SKC,0.14,WeatherDisplay:10.37,2013-06-28 21:24:00,
2013-06-28 22:29:00,52.5,41.9,29.59,WNW,292,0.0,0.0,67,0.00,CLR,SKC,0.14,WeatherDisplay:10.37,2013-06-28 21:29:00,
2013-06-28 22:34:00,52.3,41.7,29.60,WNW,292,0.0,0.0,67,0.00,CLR,SKC,0.14,WeatherDisplay:10.37,2013-06-28 21:34:00,
2013-06-28 22:39:00,52.3,41.7,29.59,West,270,0.0,0.0,67,0.00,CLR,SKC,0.14,WeatherDisplay:10.37,2013-06-28 21:39:00,
2013-06-28 22:44:00,52.3,41.7,29.59,NW,315,0.0,0.0,67,0.00,CLR,SKC,0.14,WeatherDisplay:10.37,2013-06-28 21:44:00,
2013-06-28 22:49:00,52.3,41.7,29.60,WSW,248,0.0,0.0,67,0.00,CLR,SKC,0.14,WeatherDisplay:10.37,2013-06-28 21:49:00,
2013-06-28 22:54:00,52.3,41.7,29.60,WNW,292,0.0,0.0,67,0.00,CLR,SKC,0.14,WeatherDisplay:10.37,2013-06-28 21:54:00,
2013-06-28 23:00:00,52.3,41.7,29.60,NW,314,0.0,0.0,67,0.00,CLR,SKC,0.14,WeatherDisplay:10.37,2013-06-28 22:00:00,
2013-06-28 23:05:00,52.3,41.7,29.60,WNW,298,0.0,0.0,67,0.00,CLR,SKC,0.14,WeatherDisplay:10.37,2013-06-28 22:05:00,
2013-06-28 23:09:00,52.3,41.7,29.60,West,270,0.0,0.0,67,0.00,CLR,SKC,0.14,WeatherDisplay:10.37,2013-06-28 22:09:00,
2013-06-28 23:10:00,52.3,41.7,29.60,West,259,0.0,0.0,67,0.00,CLR,SKC,0.14,WeatherDisplay:10.37,2013-06-28 22:10:00,
2013-06-28 23:15:00,52.0,41.4,29.60,West,270,0.0,0.0,67,0.00,CLR,SKC,0.14,WeatherDisplay:10.37,2013-06-28 22:15:00,
2013-06-28 23:20:00,51.8,41.6,29.61,SW,225,0.0,0.0,68,0.00,CLR,SKC,0.14,WeatherDisplay:10.37,2013-06-28 22:20:00,
2013-06-28 23:25:00,51.6,41.4,29.61,WSW,255,0.0,0.0,68,0.00,CLR,SKC,0.14,WeatherDisplay:10.37,2013-06-28 22:25:00,
2013-06-28 23:30:00,51.4,41.2,29.61,NW,315,0.0,0.0,68,0.00,CLR,SKC,0.14,WeatherDisplay:10.37,2013-06-28 22:30:00,
2013-06-28 23:34:00,51.3,41.4,29.61,WNW,292,0.0,0.0,69,0.00,CLR,SKC,0.14,WeatherDisplay:10.37,2013-06-28 22:34:00,
2013-06-28 23:40:00,51.1,41.3,29.62,West,270,0.0,0.0,69,0.00,CLR,SKC,0.14,WeatherDisplay:10.37,2013-06-28 22:40:00,
2013-06-28 23:45:00,51.1,41.3,29.62,West,270,0.0,0.0,69,0.00,CLR,SKC,0.14,WeatherDisplay:10.37,2013-06-28 22:45:00,
2013-06-28 23:50:00,51.1,42.0,29.62,West,277,0.0,0.0,71,0.00,CLR,SKC,0.14,WeatherDisplay:10.37,2013-06-28 22:50:00,
2013-06-28 23:55:00,51.1,42.0,29.62,WSW,248,0.0,0.0,71,0.00,CLR,SKC,0.14,WeatherDisplay:10.37,2013-06-28 22:55:00,